{"data":{"norad_id":67662,"epoch":"2026-09-19T15:55:56.156160Z","epoch_age_seconds":141149,"freshness":"FRESH","line1":"1 67662U 26022Q   26262.66384440  .00021795  00000+0  67492-3 0  9996","line2":"2 67662  97.2858 294.3112 0000175 125.3123 234.8137 15.33471345 35305","mean_motion":15.33471345,"eccentricity":1.75e-5,"inclination_deg":97.2858,"raan_deg":294.3112,"arg_perigee_deg":125.3123,"mean_anomaly_deg":234.8137,"bstar":0.00067492,"rev_number":3530,"period_min":93.904591350548,"perigee_km":465.34502838427,"apogee_km":465.58455444697,"semimajor_km":6843.6017914156,"source":"CELESTRAK","updated_at":"2026-09-20T09:00:43.622421Z"}}